DW7281 Weather Reports


Display with metric or nautical units.
time (UTC)temp
F
wind
direction
speed
MPH
gust
MPH
rain 1hr
in
rain 24hr
in
rain mn
in
humidity
%
barometer
mb
20260509223056 60 32 1.0 5.0 0.00 0.00 0.00 69 1030.3
20260509221551 60 12 0.0 5.0 0.00 0.00 0.00 70 1029.8
20260509220059 59 54 1.0 5.0 0.00 0.00 0.00 70 1029.6
20260509214543 58 59 0.0 3.0 0.00 0.00 0.00 72 1029.3
20260509213052 56 0 0.0 0.0 0.00 0.00 0.00 75 1029.3
20260509211546 54 0 0.0 0.0 0.00 0.00 0.00 76 1029.2
20260509210044 53 0 0.0 0.0 0.00 0.00 0.00 77 1029.2
20260509204559 50 0 0.0 0.0 0.00 0.00 0.00 81 1028.7
20260509203045 48 0 0.0 0.0 0.00 0.00 0.00 82 1028.3
20260509201548 49 0 0.0 0.0 0.00 0.00 0.00 80 1028.2
20260509200053 49 0 0.0 0.0 0.00 0.00 0.00 81 1028.1
20260509194546 49 0 0.0 0.0 0.00 0.00 0.00 82 1028.0
20260509193051 49 0 0.0 0.0 0.00 0.00 0.00 82 1027.8
20260509191552 49 0 0.0 0.0 0.00 0.00 0.00 83 1027.8
20260509190052 49 0 0.0 0.0 0.00 0.00 0.00 84 1027.7
20260509184546 49 0 0.0 0.0 0.00 0.00 0.00 85 1027.6
20260509183055 49 0 0.0 0.0 0.00 0.00 0.00 85 1027.6
20260509181546 49 0 0.0 0.0 0.00 0.00 0.00 85 1027.5
20260509180045 49 0 0.0 0.0 0.00 0.00 0.00 85 1027.4
20260509174555 49 0 0.0 0.0 0.00 0.00 0.00 85 1027.2
20260509173049 49 0 0.0 0.0 0.00 0.00 0.00 84 1027.1
20260509171553 50 0 0.0 0.0 0.00 0.00 0.00 84 1027.1
20260509170045 50 0 0.0 0.0 0.00 0.00 0.00 84 1027.3
20260509164546 50 0 0.0 0.0 0.00 0.00 0.00 83 1027.2
20260509163047 49 0 0.0 0.0 0.00 0.00 0.00 85 1027.4
20260509161552 49 0 0.0 0.0 0.00 0.00 0.00 84 1027.2
20260509160058 50 0 0.0 0.0 0.00 0.00 0.00 84 1027.3
20260509154558 49 0 0.0 0.0 0.00 0.00 0.00 84 1027.3
20260509153045 50 0 0.0 0.0 0.00 0.00 0.00 83 1027.4
20260509151546 50 0 0.0 0.0 0.00 0.00 0.00 82 1027.7
20260509150053 51 0 0.0 0.0 0.00 0.00 0.00 82 1027.6
20260509144611 51 0 0.0 0.0 0.00 0.00 0.00 82 1027.8
20260509143056 51 0 0.0 0.0 0.00 0.00 0.00 81 1027.8
20260509141547 52 0 0.0 0.0 0.00 0.00 0.00 81 1027.9
20260509140058 52 0 0.0 1.0 0.00 0.00 0.00 81 1027.8
20260509134553 52 0 0.0 1.0 0.00 0.00 0.00 81 1027.9
20260509133048 52 0 0.0 2.0 0.00 0.00 0.00 81 1028.1
20260509131556 53 0 0.0 1.0 0.00 0.00 0.00 81 1028.1
20260509130057 53 19 0.0 4.0 0.00 0.00 0.00 80 1028.2
20260509124550 53 0 0.0 0.0 0.00 0.00 0.00 80 1028.0
20260509123048 53 0 0.0 0.0 0.00 0.00 0.00 79 1028.0
20260509121600 53 0 0.0 0.0 0.00 0.00 0.00 79 1028.0
20260509120049 53 0 0.0 0.0 0.00 0.00 0.00 78 1028.1
20260509114549 54 0 0.0 0.0 0.00 0.00 0.00 78 1028.2
20260509113051 55 0 0.0 0.0 0.00 0.00 0.00 77 1028.1
20260509111546 55 0 0.0 0.0 0.00 0.00 0.00 76 1028.1
20260509110046 55 0 0.0 0.0 0.00 0.00 0.00 74 1028.1
20260509104549 55 0 0.0 0.0 0.00 0.00 0.00 73 1028.2
20260509103049 56 0 0.0 0.0 0.00 0.00 0.00 72 1027.9
20260509101551 56 0 0.0 0.0 0.00 0.00 0.00 71 1027.9
20260509100044 57 0 0.0 0.0 0.00 0.00 0.00 70 1027.8
20260509094545 57 0 0.0 0.0 0.00 0.00 0.00 69 1027.8
20260509093046 57 0 0.0 0.0 0.00 0.00 0.00 69 1027.7
20260509091550 58 0 0.0 0.0 0.00 0.00 0.00 67 1027.7
20260509084547 58 0 0.0 0.0 0.00 0.00 0.00 66 1027.2
20260509083053 59 0 0.0 0.0 0.00 0.00 0.00 65 1027.0
20260509081552 59 0 0.0 0.0 0.00 0.00 0.00 65 1026.7
20260509080048 60 0 0.0 0.0 0.00 0.00 0.00 64 1026.6
20260509074550 60 0 0.0 0.0 0.00 0.00 0.00 63 1026.4
20260509073050 60 0 0.0 0.0 0.00 0.00 0.00 62 1026.2
20260509071551 62 0 0.0 1.0 0.00 0.00 0.00 60 1026.1
20260509070051 62 0 0.0 3.0 0.00 0.00 0.00 59 1025.9
20260509064548 63 0 0.0 2.0 0.00 0.00 0.00 56 1025.8
20260509063047 64 0 0.0 4.0 0.00 0.00 0.00 55 1025.5
20260509061551 65 0 0.0 2.0 0.00 0.00 0.00 54 1025.5
20260509060058 66 0 0.0 3.0 0.00 0.00 0.00 52 1025.3
20260509054549 66 0 0.0 3.0 0.00 0.00 0.00 51 1025.3
20260509053112 66 32 0.0 7.0 0.00 0.00 0.00 50 1025.3
20260509051544 67 0 0.0 3.0 0.00 0.00 0.00 49 1025.2
20260509050045 66 0 0.0 4.0 0.00 0.00 0.00 50 1025.1
20260509044547 68 0 0.0 5.0 0.00 0.00 0.00 46 1025.2
20260509043101 68 0 0.0 6.0 0.00 0.00 0.00 49 1025.1
20260509041559 68 0 0.0 3.0 0.00 0.00 0.00 49 1025.0
20260509040056 67 0 0.0 4.0 0.00 0.00 0.00 50 1025.0
20260509034601 67 0 0.0 6.0 0.00 0.00 0.00 51 1025.0
20260509033044 67 0 0.0 2.0 0.00 0.00 0.00 51 1025.2
20260509031602 67 0 0.0 6.0 0.00 0.00 0.00 53 1025.3
20260509030056 66 0 0.0 6.0 0.00 0.00 0.00 53 1025.5
20260509024545 65 26 0.0 6.0 0.00 0.00 0.00 55 1025.7
20260509023051 65 336 0.0 10.0 0.00 0.00 0.00 57 1025.7
20260509021548 65 0 1.0 9.0 0.00 0.00 0.00 55 1025.9
20260509020054 65 67 3.0 10.0 0.00 0.00 0.00 55 1026.1
20260509014551 64 0 5.0 10.0 0.00 0.00 0.00 54 1026.2
20260509013053 65 41 4.0 10.0 0.00 0.00 0.00 53 1026.1
20260509011549 63 36 4.0 12.0 0.00 0.00 0.00 53 1026.4
20260509010055 63 49 4.0 13.0 0.00 0.00 0.00 55 1026.6
20260509004550 62 22 6.0 15.0 0.00 0.00 0.00 55 1026.6
20260509003050 62 18 4.0 15.0 0.00 0.00 0.00 58 1026.6
20260509001544 61 53 6.0 15.0 0.00 0.00 0.00 61 1026.6
20260509000051 61 34 8.0 15.0 0.00 0.00 0.00 62 1026.6
20260508234547 61 20 5.0 12.0 0.00 0.00 0.00 62 1026.7
20260508233045 61 32 5.0 12.0 0.00 0.00 0.00 61 1026.4
20260508231548 60 21 7.0 13.0 0.00 0.00 0.00 62 1026.4
20260508230057 59 28 5.0 14.0 0.00 0.00 0.00 63 1026.2
20260508224547 58 50 6.0 14.0 0.00 0.00 0.00 65 1026.1